User: anonymous   Login
Location: Friaudour
(46.0460°N, 1.2873°E)
Time: 19:41:28
(UTC+00:00)
Language:

GRACE-FO 1 - Orbit

View from above orbital plane
View from above orbital plane
View from above satellite
View from above satellite

Ground track
Ground track

The orbit data is extracted from the following two-line orbital elements,

1 43476U 18047A   20263.67685183 +.00000565  00000-0 +23194-4 0    03
2 43476  88.9836 125.0944 0014510 260.7156 197.1779 15.24063784129576
Epoch (UTC): 19 September 2020 16:14:39
Eccentricity: 0.0014510
inclination: 88.9836°
perigee height: 483 km
apogee height: 503 km
right ascension of ascending node: 125.0944°
argument of perigee: 260.7156°
revolutions per day: 15.24063784
mean anomaly at epoch: 197.1779°
orbit number at epoch: 12957

The dashed part of the orbit path shows where the satellite is in the earth's shadow,  

DLR